Location: Charbonni�res
(45.9952°N, 2.9982°E)
Time: 17:05:43
(UTC+00:00)

deb Chang Zheng 4 - Pass Details

Date: 29 November 2020
Orbit: 601 x 623 km, 98.6° (Epoch: 17 January)

Event Time Altitude Azimuth Distance (km) Brightness Sun altitude
Rises 05:27:05 0° 6° (N) 2,909 6.9 -16.9°
Reaches altitude 10° 05:29:23 10° 359° (N) 2,001 6.0 -16.5°
Maximum altitude 05:33:24 38° 292° (WNW) 965 4.0 -15.8°
Drops below altitude 10° 05:37:24 10° 225° (SW) 1,993 5.9 -15.2°
Sets 05:39:41 0° 217° (SW) 2,896 6.8 -14.8°
